Regional Weather Roundup
Issued by NWS Upton, NY

Current Version | Previous Version | Graphics & Text | Print | Product List | Glossary Off
Versions: 1 2 3 4 5 6 7 8 9 10 11 12 13 14 15 16 17 18 19 20 21 22 23 24 25 26 27 28 29

000
ASUS41 KOKX 291305
RWROKX

REGIONAL WEATHER ROUNDUP
NATIONAL WEATHER SERVICE NEW YORK NY
900 AM EDT WED OCT 29 2014

NOTE: "FAIR" INDICATES FEW OR NO CLOUDS BELOW 12,000 FEET WITH NO
SIGNIFICANT WEATHER AND/OR OBSTRUCTIONS TO VISIBILITY.

NYZ071-072-176-178-NJZ106-104-291400-
NEW YORK CITY METRO AREA


CITY           SKY/WX    TMP DP  RH WIND       PRES   REMARKS
CENTRAL PARK   PTSUNNY   64  56  75 W9        29.91R
LAGUARDIA APRT PTSUNNY   66  57  72 SW9       29.88S
KENNEDY INTL   PTSUNNY   63  59  87 SW5       29.90R
NEWARK/LIBERTY PTSUNNY   62  58  86 SW7       29.89R
BRNX BOT. GARD   N/A     64  57  77 SW17      29.91R
TETERBORO      PTSUNNY   62  57  83 SW3       29.88R
$$

NYZ177-179-078>081-291400-
LONG ISLAND NEW YORK

CITY           SKY/WX    TMP DP  RH WIND       PRES   REMARKS
FARMINGDALE    PTSUNNY   63  59  87 SW7       29.90R
ISLIP          PTSUNNY   63  60  90 SW9       29.88S
SHIRLEY        PTSUNNY   64  60  87 SW9       29.90S
WESTHAMPTON    PTSUNNY   66  62  87 SW9       29.91S
MONTAUK POINT    N/A     65  61  87 SW8       29.91S
$$

NYZ052-065-067-291400-
HUDSON VALLEY

CITY           SKY/WX    TMP DP  RH WIND       PRES   REMARKS
WHITE PLAINS   CLOUDY    62  58  86 CALM      29.88S
NEWBURGH       PTSUNNY   61  57  88 W6        29.89S
MONTGOMERY     LGT RAIN  60  55  83 S6        29.87R
POUGHKEEPSIE   CLOUDY    56  53  90 CALM      29.87S
ALBANY         CLOUDY    58  56  93 CALM      29.86S
$$

NJZ001-105-106-008-010-013-015-019>022-104-291400-
NEW JERSEY

CITY           SKY/WX    TMP DP  RH WIND       PRES   REMARKS
NEWARK/LIBERTY PTSUNNY   62  58  86 SW7       29.89R
TETERBORO      PTSUNNY   62  57  83 SW3       29.88R
CALDWELL       PTSUNNY   56  52  86 CALM      29.90R FOG
MORRISTOWN     PTSUNNY   55  54  94 CALM      29.90R
SOMERVILLE     PTSUNNY   51  49  92 MISG      29.88F FOG
SUSSEX         CLOUDY    56  51  84 CALM      29.89S
ANDOVER          N/A     54  53  97 CALM      29.90R
TRENTON        PTSUNNY   60  57  89 CALM      29.90S FOG
MILLVILLE      MOSUNNY   63  58  83 SW3       29.92R
ATLANTIC CITY  MOSUNNY   61  59  93 S5        29.92S
WRIGHTSTOWN    NOT AVBL
TOMS RIVER     MOSUNNY   61  57  88 CALM      29.91S
BELMAR         MOSUNNY   61  54  77 SW6       29.90S
$$

PAZ047>061-062-071-291400-
EASTERN PENNSYLVANIA

CITY           SKY/WX    TMP DP  RH WIND       PRES   REMARKS
PHILADELPHIA   PTSUNNY   64  58  80 SW6       29.91S
ALLENTOWN      CLOUDY    56  51  84 NW3       29.90S
SCRANTON       LGT RAIN  58  46  64 SW13      29.93R
$$

CTZ002-004>006-009-010-012-RIZ004-006-007-MAZ004-011-015-291400-
SOUTHERN NEW ENGLAND
 IN CT

CITY           SKY/WX    TMP DP  RH WIND       PRES   REMARKS
BRADLEY INTL   CLOUDY    58  56  93 CALM      29.86S FOG
HARTFORD       CLOUDY    61  58  90 S5        29.86F
DANBURY        PTSUNNY   55  52  89 CALM      29.89S FOG
WTRBRY/OXFORD  MOSUNNY   57  54  88 SW5       29.90R FOG
BRIDGEPORT     PTSUNNY   58  56  93 CALM      29.88S
MERIDEN        FOG       54  53  97 CALM      29.88S VSB<1/4
NEW HAVEN      CLOUDY    60  57  89 CALM      29.88S FOG
CHESTER        FAIR      63  61  94 SW8       29.89S
GROTON         PTSUNNY   63  61  93 SW6       29.89S
WILLIMANTIC    CLOUDY    52  50  93 NE3       29.89S

 IN RI

CITY           SKY/WX    TMP DP  RH WIND       PRES   REMARKS
PROVIDENCE     CLOUDY    64  60  87 S9        29.89R
BLOCK ISLAND   PTSUNNY   64  61  88 SW13      29.91S
WESTERLY       CLOUDY    64  61  90 SW8       29.90S

 IN MA

CITY           SKY/WX    TMP DP  RH WIND       PRES   REMARKS
BOSTON         CLOUDY    59  57  93 CALM      29.87S
WORCESTER      CLOUDY    56  56 100 SW10      29.87F FOG
WESTFIELD      FOG       52  51  97 CALM      29.86S VSB<1/4
PROVINCETOWN   CLOUDY    63   7  11 SW14G20   29.89S
NANTUCKET      PTSUNNY   63  60  90 SW10      29.93S
$$

ANZ330-335-338-340-345-350-353-355-291400-
COASTAL MARINE OBSERVATIONS


STATION/POSITION TIME  SKY/WX   TEMP    WIND        PRES    VSBY  WAVE
                                AIR SEA DIR/SP/G                  HT/PER
                 (UTC)          (F)     (DEG/KT/KT) (MB)    (MI)  (FT/S)
NY HARB ENTRANCE 1300            63 62  210/ 12/ 14 1012.8          3/ 6
4S FIRE IS       1300               62                N/A           5/ 6
20S FIRE ISLAND  1300            64 62  210/ 16/ 17 1012.2          5/ 6
23SW MTP         1300                                 N/A           6/ 7
HUDSON CANYON    1300            67 65  210/ 17/ 21 1013.5          5/ 6
EXECUTION ROCKS  1300            62 60  230/  8/  8   N/A
WESTERN LI SOUND 1300            61     300/  2/  4   N/A           0
CENTRAL LI SOUND 1200            62 61  210/ 12/ 12   N/A           1/ 2
EASTERN LI SOUND 1200            64 62  230/ 12/ 16   N/A
ROBBINS REEF     1300            63     270/  5/  7 1011.0
$$


>>>>>>>>>>>>>>>>>>>>>>>>>>>> KEY <<<<<<<<<<<<<<<<<<<<<<<<<<<
>                                                          <
>     SKY/WX - SKY CONDITION/PRESENT WEATHER               <
>     TMP    - TEMPERATURE IN FAHRENHEIT                   <
>     DP     - DEWPOINT IN FAHRENHEIT                      <
>     RH     - RELATIVE HUMIDITY IN PERCENT                <
>     WIND   - DIRECTION AND SPEED IN MPH                  <
>     PRES   - MEAN SEA LEVEL PRESSURE IN INCHES OF HG     <
>     WCI    - WIND CHILL INDEX                            <
>     VSB    - VISIBILITY IN MILES                         <
>     HX     - HEAT INDEX                                  <
>     TC     - TEMPERATURE IN CELSIUS                      <
>     VRB    - VARIABLE WIND DIRECTION                     <
>                                                          <
>>>>>>>>>>>>>>>>>>>>>>>>>>>> KEY <<<<<<<<<<<<<<<<<<<<<<<<<<<





USA.gov is the U.S. government's official web portal to all federal, state and local government web resources and services.